Miscellaneous Local Product
Issued by NWS North Platte, NE

Home | Current Version | Previous Version | Text Only | Print | Product List | Glossary On
Versions: 1 2 3 4 5 6 7 8 9 10 11 12 13 14 15 16 17 18 19 20 21 22 23 24 25 26 27 28 29 30 31 32 33 34 35 36 37 38 39 40 41 42 43 44 45 46 47 48 49 50
000
AXUS43 KLBF 060610
MISLBF


WESTERN AND NORTH CENTRAL NEBRASKA HOURLY WEATHER ROUNDUP
NATIONAL WEATHER SERVICE NORTH PLATTE NE
100 AM CDT FRI MAY 06 2016

NOTE: "FAIR" INDICATES FEW OR NO CLOUDS BELOW 12,000 FEET WITH NO
SIGNIFICANT WEATHER AND/OR OBSTRUCTIONS TO VISIBILITY.

NOTE: STATIONS NOT REPORTING VARIABLES SUCH AS SKY/WEATHER OR
PRESSURE ARE PROVIDED BY RAWS AND APRS NETWORKS AND ARE NOT UNDER
NATIONAL WEATHER SERVICE QUALITY CONTROL.

...OBSERVATIONS IN AND NEAR THE EASTERN PANHANDLE OF NEBRASKA...

CITY           SKY/WX    TMP DP  RH WIND       PRES   REMARKS
PINE RIDGE     CLOUDY    67  45  45 S16       29.92R
CHADRON        CLOUDY    63  43  48 SW8       29.90S
ALLIANCE       CLOUDY    58  47  66 S13       29.97R
SIDNEY         CLOUDY    60  43  53 S14       30.02R
CRESCENT LAKE    N/A     61  47  60 S9          N/A
BIG SPRINGS      N/A     63  50  63 S14         N/A
$$

...OBSERVATIONS IN NORTHERN NEBRASKA AND FAR SOUTHERN SOUTH DAKOTA...

CITY           SKY/WX    TMP DP  RH WIND       PRES   REMARKS
WINNER         LGT RAIN  71  47  42 S24G30    29.86S
VALENTINE      PTCLDY    66  45  46 SW15      29.91R
THEDFORD       CLEAR     65  49  54 S18       29.98R
AINSWORTH      CLOUDY    65  47  52 S17G24    29.94S
O`NEILL        CLEAR     62  48  59 S9        29.96R
ORD            PTCLDY    59  48  67 SW8       29.97S
BROKEN BOW     LGT RAIN  62  47  57 S6        30.00R
BUTTE            N/A     65  49  56 S12         N/A
HALSEY           N/A     67  46  46 S12G20      N/A
CHAMBERS         N/A     62  47  59 S7          N/A
EWING            N/A     63  47  55 S5          N/A
$$

...OBSERVATIONS IN SOUTHWEST NEBRASKA AND FAR NORTHEAST COLORADO...

CITY           SKY/WX    TMP DP  RH WIND       PRES   REMARKS
HOLYOKE        FAIR      59  46  63 S13       30.02R
IMPERIAL       CLOUDY    61  48  62 S12       30.02R
OGALLALA       CLOUDY    63  48  58 S16G22    29.99S
NORTH PLATTE   CLOUDY    62  46  55 VRB7      30.00S
MCCOOK         CLOUDY    62  46  55 S13       30.02R
LEXINGTON      CLEAR     60  46  59 S12       30.02R
PAXTON           N/A     61  51  70 S13         N/A
STAPLETON        N/A     58  48  69 CALM        N/A
GOTHENBURG       N/A     66  45  46 S8          N/A
CALLAWAY         N/A     57  48  72 S12         N/A
$$

...OBSERVATIONS IN CENTRAL LINCOLN COUNTY AREA...

CITY           SKY/WX    TMP DP  RH WIND       PRES   REMARKS
N.P. AIRPORT   CLOUDY    62  46  55 VRB7      30.00S
N.P. DOWNTOWN    N/A     63  49  61 CALM        N/A
N.P. SOUTHEAST   N/A     61  49  63 S5G12       N/A
N.P. HILLCREST   N/A     61  49  63 S7          N/A
$$

...SOME OBSERVATIONS FROM AROUND THE REGION...

CITY           SKY/WX    TMP DP  RH WIND       PRES   REMARKS
DENVER         CLOUDY    58  39  49 S14       30.04R
LARAMIE        CLOUDY    45  35  68 S5        30.11F
CHEYENNE       CLOUDY    59  36  42 S7        30.07F
SCOTTSBLUFF    CLOUDY    66  41  40 S7        29.96S
RAPID CITY     CLOUDY    52  45  77 NW5       29.88S
BISMARCK       CLEAR     58  46  64 CALM      29.78S
PIERRE         CLOUDY    63  49  60 S8        29.79S
SIOUX FALLS    CLEAR     62  44  51 SW12      29.93S
OMAHA          CLEAR     59  47  64 SE8       30.00S
GRAND ISLAND   CLEAR     61  41  47 S10       30.02S
KANSAS CITY    CLEAR     54  39  57 S6        30.05S
WICHITA        PTCLDY    59  45  59 S5        30.06S
OKLAHOMA CITY  PTCLDY    58  47  66 SE6       30.06S
DALLAS         PTCLDY    65  47  52 CALM      30.05R
AMARILLO       CLEAR     57  46  66 SE13      30.08F
DODGE CITY     CLEAR     56  43  61 S13       30.06S
HAYS           CLOUDY    54  43  66 SW3       30.05S
GOODLAND       CLOUDY    56  48  74 S14       30.05R
$$




USA.gov is the U.S. government's official web portal to all federal, state and local government web resources and services.